Year,Month,Day,Hour,Minute,Value (Times are PST for temperature in C)
2012,09,29,00,00,2.80
2012,09,29,00,01,2.80
2012,09,29,00,02,2.80
2012,09,29,00,03,2.80
2012,09,29,00,04,2.80
2012,09,29,00,05,2.80
2012,09,29,00,06,2.90
2012,09,29,00,07,3.00
2012,09,29,00,08,3.10
2012,09,29,00,09,3.10
2012,09,29,00,10,3.20
2012,09,29,00,11,3.20
2012,09,29,00,12,3.20
2012,09,29,00,13,3.20
2012,09,29,00,14,3.20
2012,09,29,00,15,3.20
2012,09,29,00,16,3.20
2012,09,29,00,17,3.10
2012,09,29,00,18,3.10
2012,09,29,00,19,3.10
2012,09,29,00,20,3.00
2012,09,29,00,21,3.00
2012,09,29,00,22,2.90
2012,09,29,00,23,2.90
2012,09,29,00,24,2.80
2012,09,29,00,25,2.80
2012,09,29,00,26,2.80
2012,09,29,00,27,2.70
2012,09,29,00,28,2.70
2012,09,29,00,29,2.70
2012,09,29,00,30,2.70
2012,09,29,00,31,2.60
2012,09,29,00,32,2.60
2012,09,29,00,33,2.60
2012,09,29,00,34,2.50
2012,09,29,00,35,2.50
2012,09,29,00,36,2.50
2012,09,29,00,37,2.50
2012,09,29,00,38,2.40
2012,09,29,00,39,2.40
2012,09,29,00,40,2.40
2012,09,29,00,41,2.40
2012,09,29,00,42,2.30
2012,09,29,00,43,2.30
2012,09,29,00,44,2.30
2012,09,29,00,45,2.30
2012,09,29,00,46,2.20
2012,09,29,00,47,2.20
2012,09,29,00,48,2.20
2012,09,29,00,49,2.20
2012,09,29,00,50,2.10
2012,09,29,00,51,2.10
2012,09,29,00,52,2.10
2012,09,29,00,53,2.10
2012,09,29,00,54,2.10
2012,09,29,00,55,2.10
2012,09,29,00,56,2.00
2012,09,29,00,57,2.00
2012,09,29,00,58,2.00
2012,09,29,00,59,2.00
2012,09,29,01,00,2.00
2012,09,29,01,01,2.00
2012,09,29,01,02,1.90
2012,09,29,01,03,2.00
2012,09,29,01,04,1.90
2012,09,29,01,05,1.90
2012,09,29,01,06,1.90
2012,09,29,01,07,1.90
2012,09,29,01,08,1.90
2012,09,29,01,09,1.90
2012,09,29,01,10,2.00
2012,09,29,01,11,2.00
2012,09,29,01,12,2.00
2012,09,29,01,13,2.00
2012,09,29,01,14,2.00
2012,09,29,01,15,2.00
2012,09,29,01,16,2.00
2012,09,29,01,17,2.00
2012,09,29,01,18,2.00
2012,09,29,01,19,2.00
2012,09,29,01,20,2.00
2012,09,29,01,21,2.00
2012,09,29,01,22,2.00
2012,09,29,01,23,2.00
2012,09,29,01,24,1.90
2012,09,29,01,25,1.90
2012,09,29,01,26,1.90
2012,09,29,01,27,1.90
2012,09,29,01,28,1.90
2012,09,29,01,29,1.90
2012,09,29,01,30,1.90
2012,09,29,01,31,1.90
2012,09,29,01,32,1.80
2012,09,29,01,33,1.80
2012,09,29,01,34,1.80
2012,09,29,01,35,1.80
2012,09,29,01,36,1.80
2012,09,29,01,37,1.80
2012,09,29,01,38,1.90
2012,09,29,01,39,1.90
2012,09,29,01,40,1.90
2012,09,29,01,41,1.90
2012,09,29,01,42,1.90
2012,09,29,01,43,1.80
2012,09,29,01,44,1.80
2012,09,29,01,45,1.80
2012,09,29,01,46,1.80
2012,09,29,01,47,1.80
2012,09,29,01,48,1.70
2012,09,29,01,49,1.70
2012,09,29,01,50,1.70
2012,09,29,01,51,1.70
2012,09,29,01,52,1.70
2012,09,29,01,53,1.70
2012,09,29,01,54,1.70
2012,09,29,01,55,1.70
2012,09,29,01,56,1.70
2012,09,29,01,57,1.60
2012,09,29,01,58,1.60
2012,09,29,01,59,1.60
2012,09,29,02,00,1.60
2012,09,29,02,01,1.50
2012,09,29,02,02,1.50
2012,09,29,02,03,1.50
2012,09,29,02,04,1.40
2012,09,29,02,05,1.40
2012,09,29,02,06,1.40
2012,09,29,02,07,1.30
2012,09,29,02,08,1.30
2012,09,29,02,09,1.30
2012,09,29,02,10,1.30
2012,09,29,02,11,1.30
2012,09,29,02,12,1.20
2012,09,29,02,13,1.20
2012,09,29,02,14,1.20
2012,09,29,02,15,1.20
2012,09,29,02,16,1.20
2012,09,29,02,17,1.20
2012,09,29,02,18,1.30
2012,09,29,02,19,1.40
2012,09,29,02,20,1.40
2012,09,29,02,21,1.40
2012,09,29,02,22,1.50
2012,09,29,02,23,1.50
2012,09,29,02,24,1.50
2012,09,29,02,25,1.50
2012,09,29,02,26,1.50
2012,09,29,02,27,1.40
2012,09,29,02,28,1.40
2012,09,29,02,29,1.40
2012,09,29,02,30,1.30
2012,09,29,02,31,1.30
2012,09,29,02,32,1.30
2012,09,29,02,33,1.30
2012,09,29,02,34,1.20
2012,09,29,02,35,1.20
2012,09,29,02,36,1.20
2012,09,29,02,37,1.20
2012,09,29,02,38,1.20
2012,09,29,02,39,1.10
2012,09,29,02,40,1.10
2012,09,29,02,41,1.10
2012,09,29,02,42,1.10
2012,09,29,02,43,1.00
2012,09,29,02,44,1.00
2012,09,29,02,45,0.90
2012,09,29,02,46,0.90
2012,09,29,02,47,0.90
2012,09,29,02,48,0.80
2012,09,29,02,49,0.80
2012,09,29,02,50,0.80
2012,09,29,02,51,0.80
2012,09,29,02,52,0.70
2012,09,29,02,53,0.70
2012,09,29,02,54,0.70
2012,09,29,02,55,0.70
2012,09,29,02,56,0.70
2012,09,29,02,57,0.60
2012,09,29,02,58,0.60
2012,09,29,02,59,0.60
2012,09,29,03,00,0.60
2012,09,29,03,01,0.50
2012,09,29,03,02,0.50
2012,09,29,03,03,0.50
2012,09,29,03,04,0.40
2012,09,29,03,05,0.40
2012,09,29,03,06,0.40
2012,09,29,03,07,0.40
2012,09,29,03,08,0.40
2012,09,29,03,09,0.30
2012,09,29,03,10,0.30
2012,09,29,03,11,0.30
2012,09,29,03,12,0.30
2012,09,29,03,13,0.30
2012,09,29,03,14,0.30
2012,09,29,03,15,0.30
2012,09,29,03,16,0.30
2012,09,29,03,17,0.30
2012,09,29,03,18,0.30
2012,09,29,03,19,0.30
2012,09,29,03,20,0.20
2012,09,29,03,21,0.20
2012,09,29,03,22,0.20
2012,09,29,03,23,0.20
2012,09,29,03,24,0.20
2012,09,29,03,25,0.20
2012,09,29,03,26,0.20
2012,09,29,03,27,0.20
2012,09,29,03,28,0.20
2012,09,29,03,29,0.20
2012,09,29,03,30,0.20
2012,09,29,03,31,0.20
2012,09,29,03,32,0.20
2012,09,29,03,33,0.20
2012,09,29,03,34,0.20
2012,09,29,03,35,0.20
2012,09,29,03,36,0.20
2012,09,29,03,37,0.20
2012,09,29,03,38,0.20
2012,09,29,03,39,0.20
2012,09,29,03,40,0.20
2012,09,29,03,41,0.20
2012,09,29,03,42,0.20
2012,09,29,03,43,0.10
2012,09,29,03,44,0.10
2012,09,29,03,45,0.10
2012,09,29,03,46,0.10
2012,09,29,03,47,0.10
2012,09,29,03,48,0.10
2012,09,29,03,49,0.10
2012,09,29,03,50,0.10
2012,09,29,03,51,0.10
2012,09,29,03,52,0.20
2012,09,29,03,53,0.20
2012,09,29,03,54,0.20
2012,09,29,03,55,0.20
2012,09,29,03,56,0.20
2012,09,29,03,57,0.20
2012,09,29,03,58,0.20
2012,09,29,03,59,0.30
2012,09,29,04,00,0.30
2012,09,29,04,01,0.30
2012,09,29,04,02,0.40
2012,09,29,04,03,0.50
2012,09,29,04,04,0.60
2012,09,29,04,05,0.60
2012,09,29,04,06,0.70
2012,09,29,04,07,0.70
2012,09,29,04,08,0.70
2012,09,29,04,09,0.70
2012,09,29,04,10,0.80
2012,09,29,04,11,0.80
2012,09,29,04,12,0.80
2012,09,29,04,13,0.70
2012,09,29,04,14,0.70
2012,09,29,04,15,0.70
2012,09,29,04,16,0.70
2012,09,29,04,17,0.70
2012,09,29,04,18,0.70
2012,09,29,04,19,0.60
2012,09,29,04,20,0.60
2012,09,29,04,21,0.50
2012,09,29,04,22,0.50
2012,09,29,04,23,0.50
2012,09,29,04,24,0.40
2012,09,29,04,25,0.40
2012,09,29,04,26,0.40
2012,09,29,04,27,0.40
2012,09,29,04,28,0.50
2012,09,29,04,29,0.50
2012,09,29,04,30,0.60
2012,09,29,04,31,0.70
2012,09,29,04,32,0.90
2012,09,29,04,33,1.00
2012,09,29,04,34,1.20
2012,09,29,04,35,1.30
2012,09,29,04,36,1.40
2012,09,29,04,37,1.50
2012,09,29,04,38,1.60
2012,09,29,04,39,1.70
2012,09,29,04,40,1.70
2012,09,29,04,41,1.70
2012,09,29,04,42,1.70
2012,09,29,04,43,1.70
2012,09,29,04,44,1.70
2012,09,29,04,45,1.70
2012,09,29,04,46,1.70
2012,09,29,04,47,1.80
2012,09,29,04,48,1.80
2012,09,29,04,49,1.80
2012,09,29,04,50,1.80
2012,09,29,04,51,1.80
2012,09,29,04,52,1.80
2012,09,29,04,53,1.80
2012,09,29,04,54,1.80
2012,09,29,04,55,1.80
2012,09,29,04,56,1.80
2012,09,29,04,57,1.80
2012,09,29,04,58,1.80
2012,09,29,04,59,1.80
2012,09,29,05,00,1.80
2012,09,29,05,01,1.80
2012,09,29,05,02,1.80
2012,09,29,05,03,1.80
2012,09,29,05,04,1.80
2012,09,29,05,05,1.80
2012,09,29,05,06,1.80
2012,09,29,05,07,1.80
2012,09,29,05,08,1.80
2012,09,29,05,09,1.80
2012,09,29,05,10,1.80
2012,09,29,05,11,1.80
2012,09,29,05,12,1.80
2012,09,29,05,13,1.80
2012,09,29,05,14,1.80
2012,09,29,05,15,1.80
2012,09,29,05,16,1.80
2012,09,29,05,17,1.80
2012,09,29,05,18,1.70
2012,09,29,05,19,1.70
2012,09,29,05,20,1.70
2012,09,29,05,21,1.70
2012,09,29,05,22,1.70
2012,09,29,05,23,1.80
2012,09,29,05,24,1.80
2012,09,29,05,25,1.80
2012,09,29,05,26,1.80
2012,09,29,05,27,1.80
2012,09,29,05,28,1.80
2012,09,29,05,29,1.70
2012,09,29,05,30,1.70
2012,09,29,05,31,1.70
2012,09,29,05,32,1.70
2012,09,29,05,33,1.70
2012,09,29,05,34,1.60
2012,09,29,05,35,1.60
2012,09,29,05,36,1.60
2012,09,29,05,37,1.60
2012,09,29,05,38,1.50
2012,09,29,05,39,1.50
2012,09,29,05,40,1.40
2012,09,29,05,41,1.40
2012,09,29,05,42,1.50
2012,09,29,05,43,1.50
2012,09,29,05,44,1.50
2012,09,29,05,45,1.50
2012,09,29,05,46,1.50
2012,09,29,05,47,1.60
2012,09,29,05,48,1.60
2012,09,29,05,49,1.60
2012,09,29,05,50,1.60
2012,09,29,05,51,1.60
2012,09,29,05,52,1.60
2012,09,29,05,53,1.60
2012,09,29,05,54,1.60
2012,09,29,05,55,1.60
2012,09,29,05,56,1.60
2012,09,29,05,57,1.60
2012,09,29,05,58,1.60
2012,09,29,05,59,1.60
2012,09,29,06,00,1.60
2012,09,29,06,01,1.60
2012,09,29,06,02,1.60
2012,09,29,06,03,1.60
2012,09,29,06,04,1.60
2012,09,29,06,05,1.60
2012,09,29,06,06,1.50
2012,09,29,06,07,1.50
2012,09,29,06,08,1.50
2012,09,29,06,09,1.50
2012,09,29,06,10,1.50
2012,09,29,06,11,1.40
2012,09,29,06,12,1.50
2012,09,29,06,13,1.40
2012,09,29,06,14,1.40
2012,09,29,06,15,1.40
2012,09,29,06,16,1.40
2012,09,29,06,17,1.40
2012,09,29,06,18,1.40
2012,09,29,06,19,1.40
2012,09,29,06,20,1.40
2012,09,29,06,21,1.30
2012,09,29,06,22,1.30
2012,09,29,06,23,1.30
2012,09,29,06,24,1.30
2012,09,29,06,25,1.30
2012,09,29,06,26,1.30
2012,09,29,06,27,1.30
2012,09,29,06,28,1.20
2012,09,29,06,29,1.20
2012,09,29,06,30,1.20
2012,09,29,06,31,1.10
2012,09,29,06,32,1.00
2012,09,29,06,33,1.00
2012,09,29,06,34,0.90
2012,09,29,06,35,0.90
2012,09,29,06,36,0.90
2012,09,29,06,37,0.90
2012,09,29,06,38,0.80
2012,09,29,06,39,0.80
2012,09,29,06,40,0.80
2012,09,29,06,41,0.70
2012,09,29,06,42,0.70
2012,09,29,06,43,0.70
2012,09,29,06,44,0.60
2012,09,29,06,45,0.60
2012,09,29,06,46,0.60
2012,09,29,06,47,0.50
2012,09,29,06,48,0.50
2012,09,29,06,49,0.40
2012,09,29,06,50,0.40
2012,09,29,06,51,0.40
2012,09,29,06,52,0.40
2012,09,29,06,53,0.40
2012,09,29,06,54,0.40
2012,09,29,06,55,0.40
2012,09,29,06,56,0.50
2012,09,29,06,57,0.60
2012,09,29,06,58,0.60
2012,09,29,06,59,0.70
2012,09,29,07,00,0.70
2012,09,29,07,01,0.70
2012,09,29,07,02,0.70
2012,09,29,07,03,0.70
2012,09,29,07,04,0.70
2012,09,29,07,05,0.70
2012,09,29,07,06,0.70
2012,09,29,07,07,0.60
2012,09,29,07,08,0.60
2012,09,29,07,09,0.60
2012,09,29,07,10,0.60
2012,09,29,07,11,0.60
2012,09,29,07,12,0.50
2012,09,29,07,13,0.50
2012,09,29,07,14,0.50
2012,09,29,07,15,0.60
2012,09,29,07,16,0.60
2012,09,29,07,17,0.60
2012,09,29,07,18,0.50
2012,09,29,07,19,0.50
2012,09,29,07,20,0.50
2012,09,29,07,21,0.50
2012,09,29,07,22,0.40
2012,09,29,07,23,0.40
2012,09,29,07,24,0.40
2012,09,29,07,25,0.40
2012,09,29,07,26,0.30
2012,09,29,07,27,0.30
2012,09,29,07,28,0.30
2012,09,29,07,29,0.30
2012,09,29,07,30,0.30
2012,09,29,07,31,0.30
2012,09,29,07,32,0.20
2012,09,29,07,33,0.20
2012,09,29,07,34,0.20
2012,09,29,07,35,0.20
2012,09,29,07,36,0.20
2012,09,29,07,37,0.20
2012,09,29,07,38,0.20
2012,09,29,07,39,0.10
2012,09,29,07,40,0.10
2012,09,29,07,41,0.10
2012,09,29,07,42,0.10
2012,09,29,07,43,0.10
2012,09,29,07,44,0.10
2012,09,29,07,45,0.10
2012,09,29,07,46,0.10
2012,09,29,07,47,0.10
2012,09,29,07,48,0.00
2012,09,29,07,49,0.00
2012,09,29,07,50,0.00
2012,09,29,07,51,0.00
2012,09,29,07,52,0.00
2012,09,29,07,53,-0.10
2012,09,29,07,54,-0.10
2012,09,29,07,55,-0.10
2012,09,29,07,56,-0.10
2012,09,29,07,57,-0.10
2012,09,29,07,58,-0.20
2012,09,29,07,59,-0.20
2012,09,29,08,00,-0.20
2012,09,29,08,01,-0.20
2012,09,29,08,02,-0.20
2012,09,29,08,03,-0.20
2012,09,29,08,04,-0.20
2012,09,29,08,05,-0.20
2012,09,29,08,06,-0.20
2012,09,29,08,07,-0.20
2012,09,29,08,08,-0.20
2012,09,29,08,09,-0.20
2012,09,29,08,10,-0.20
2012,09,29,08,11,-0.10
2012,09,29,08,12,-0.10
2012,09,29,08,13,0.00
2012,09,29,08,14,0.00
2012,09,29,08,15,0.10
2012,09,29,08,16,0.10
2012,09,29,08,17,0.10
2012,09,29,08,18,0.20
2012,09,29,08,19,0.20
2012,09,29,08,20,0.20
2012,09,29,08,21,0.20
2012,09,29,08,22,0.20
2012,09,29,08,23,0.20
2012,09,29,08,24,0.30
2012,09,29,08,25,0.30
2012,09,29,08,26,0.30
2012,09,29,08,27,0.30
2012,09,29,08,28,0.30
2012,09,29,08,29,0.30
2012,09,29,08,30,0.30
2012,09,29,08,31,0.30
2012,09,29,08,32,0.30
2012,09,29,08,33,0.30
2012,09,29,08,34,0.40
2012,09,29,08,35,0.40
2012,09,29,08,36,0.40
2012,09,29,08,37,0.40
2012,09,29,08,38,0.40
2012,09,29,08,39,0.40
2012,09,29,08,40,0.40
2012,09,29,08,41,0.40
2012,09,29,08,42,0.50
2012,09,29,08,43,0.50
2012,09,29,08,44,0.50
2012,09,29,08,45,0.60
2012,09,29,08,46,0.60
2012,09,29,08,47,0.60
2012,09,29,08,48,0.60
2012,09,29,08,49,0.60
2012,09,29,08,50,0.60
2012,09,29,08,51,0.60
2012,09,29,08,52,0.60
2012,09,29,08,53,0.60
2012,09,29,08,54,0.60
2012,09,29,08,55,0.60
2012,09,29,08,56,0.50
2012,09,29,08,57,0.50
2012,09,29,08,58,0.50
2012,09,29,08,59,0.50
2012,09,29,09,00,0.50
2012,09,29,09,01,0.40
2012,09,29,09,02,0.40
2012,09,29,09,03,0.40
2012,09,29,09,04,0.40
2012,09,29,09,05,0.30
2012,09,29,09,06,0.30
2012,09,29,09,07,0.30
2012,09,29,09,08,0.30
2012,09,29,09,09,0.30
2012,09,29,09,10,0.30
2012,09,29,09,11,0.30
2012,09,29,09,12,0.30
2012,09,29,09,13,0.30
2012,09,29,09,14,0.30
2012,09,29,09,15,0.30
2012,09,29,09,16,0.30
2012,09,29,09,17,0.30
2012,09,29,09,18,0.30
2012,09,29,09,19,0.30
2012,09,29,09,20,0.30
2012,09,29,09,21,0.40
2012,09,29,09,22,0.40
2012,09,29,09,23,0.40
2012,09,29,09,24,0.40
2012,09,29,09,25,0.40
2012,09,29,09,26,0.40
2012,09,29,09,27,0.40
2012,09,29,09,28,0.40
2012,09,29,09,29,0.40
2012,09,29,09,30,0.40
2012,09,29,09,31,0.40
2012,09,29,09,32,0.50
2012,09,29,09,33,0.50
2012,09,29,09,34,0.50
2012,09,29,09,35,0.60
2012,09,29,09,36,0.60
2012,09,29,09,37,0.60
2012,09,29,09,38,0.60
2012,09,29,09,39,0.70
2012,09,29,09,40,0.70
2012,09,29,09,41,0.70
2012,09,29,09,42,0.70
2012,09,29,09,43,0.70
2012,09,29,09,44,0.70
2012,09,29,09,45,0.80
2012,09,29,09,46,0.80
2012,09,29,09,47,0.80
2012,09,29,09,48,0.80
2012,09,29,09,49,0.80
2012,09,29,09,50,0.80
2012,09,29,09,51,0.80
2012,09,29,09,52,0.80
2012,09,29,09,53,0.80
2012,09,29,09,54,0.80
2012,09,29,09,55,0.80
2012,09,29,09,56,0.80
2012,09,29,09,57,0.80
2012,09,29,09,58,0.80
2012,09,29,09,59,0.80
2012,09,29,10,00,0.90
2012,09,29,10,01,0.90
2012,09,29,10,02,0.90
2012,09,29,10,03,0.90
2012,09,29,10,04,0.90
2012,09,29,10,05,0.90
2012,09,29,10,06,0.90
2012,09,29,10,07,0.90
2012,09,29,10,08,0.90
2012,09,29,10,09,0.90
2012,09,29,10,10,0.90
2012,09,29,10,11,0.90
2012,09,29,10,12,0.90
2012,09,29,10,13,0.90
2012,09,29,10,14,0.90
2012,09,29,10,15,0.90
2012,09,29,10,16,0.90
2012,09,29,10,17,0.90
2012,09,29,10,18,0.90
2012,09,29,10,19,0.90
2012,09,29,10,20,0.90
2012,09,29,10,21,0.90
2012,09,29,10,22,0.90
2012,09,29,10,23,0.90
2012,09,29,10,24,1.00
2012,09,29,10,25,1.00
2012,09,29,10,26,1.10
2012,09,29,10,27,1.10
2012,09,29,10,28,1.10
2012,09,29,10,29,1.10
2012,09,29,10,30,1.10
2012,09,29,10,31,1.10
2012,09,29,10,32,1.10
2012,09,29,10,33,1.10
2012,09,29,10,34,1.10
2012,09,29,10,35,1.00
2012,09,29,10,36,1.00
2012,09,29,10,37,1.00
2012,09,29,10,38,1.00
2012,09,29,10,39,1.00
2012,09,29,10,40,1.00
2012,09,29,10,41,1.00
2012,09,29,10,42,1.00
2012,09,29,10,43,1.00
2012,09,29,10,44,1.00
2012,09,29,10,45,1.10
2012,09,29,10,46,1.10
2012,09,29,10,47,1.10
2012,09,29,10,48,1.10
2012,09,29,10,49,1.10
2012,09,29,10,50,1.10
2012,09,29,10,51,1.10
2012,09,29,10,52,1.10
2012,09,29,10,53,1.10
2012,09,29,10,54,1.10
2012,09,29,10,55,1.20
2012,09,29,10,56,1.20
2012,09,29,10,57,1.20
2012,09,29,10,58,1.30
2012,09,29,10,59,1.30
2012,09,29,11,00,1.40
2012,09,29,11,01,1.40
2012,09,29,11,02,1.50
2012,09,29,11,03,1.50
2012,09,29,11,04,1.60
2012,09,29,11,05,1.60
2012,09,29,11,06,1.60
2012,09,29,11,07,1.60
2012,09,29,11,08,1.70
2012,09,29,11,09,1.70
2012,09,29,11,10,1.70
2012,09,29,11,11,1.80
2012,09,29,11,12,1.90
2012,09,29,11,13,2.00
2012,09,29,11,14,2.10
2012,09,29,11,15,2.20
2012,09,29,11,16,2.40
2012,09,29,11,17,2.50
2012,09,29,11,18,2.60
2012,09,29,11,19,2.70
2012,09,29,11,20,2.80
2012,09,29,11,21,2.90
2012,09,29,11,22,2.90
2012,09,29,11,23,3.00
2012,09,29,11,24,3.10
2012,09,29,11,25,3.10
2012,09,29,11,26,3.10
2012,09,29,11,27,3.20
2012,09,29,11,28,3.20
2012,09,29,11,29,3.30
2012,09,29,11,30,3.30
2012,09,29,11,31,3.30
2012,09,29,11,32,3.30
2012,09,29,11,33,3.30
2012,09,29,11,34,3.30
2012,09,29,11,35,3.30
2012,09,29,11,36,3.30
2012,09,29,11,37,3.30
2012,09,29,11,38,3.30
2012,09,29,11,39,3.30
2012,09,29,11,40,3.30
2012,09,29,11,41,3.20
2012,09,29,11,42,3.20
2012,09,29,11,43,3.20
2012,09,29,11,44,3.20
2012,09,29,11,45,3.20
2012,09,29,11,46,3.20
2012,09,29,11,47,3.20
2012,09,29,11,48,3.20
2012,09,29,11,49,3.10
2012,09,29,11,50,3.10
2012,09,29,11,51,3.10
2012,09,29,11,52,3.10
2012,09,29,11,53,3.10
2012,09,29,11,54,3.10
2012,09,29,11,55,3.10
2012,09,29,11,56,3.10
2012,09,29,11,57,3.10
2012,09,29,11,58,3.10
2012,09,29,11,59,3.10
2012,09,29,12,00,3.20
2012,09,29,12,01,3.20
2012,09,29,12,02,3.20
2012,09,29,12,03,3.20
2012,09,29,12,04,3.20
2012,09,29,12,05,3.20
2012,09,29,12,06,3.30
2012,09,29,12,07,3.30
2012,09,29,12,08,3.30
2012,09,29,12,09,3.30
2012,09,29,12,10,3.30
2012,09,29,12,11,3.40
2012,09,29,12,12,3.40
2012,09,29,12,13,3.40
2012,09,29,12,14,3.40
2012,09,29,12,15,3.40
2012,09,29,12,16,3.50
2012,09,29,12,17,3.50
2012,09,29,12,18,3.50
2012,09,29,12,19,3.50
2012,09,29,12,20,3.60
2012,09,29,12,21,3.60
2012,09,29,12,22,3.60
2012,09,29,12,23,3.60
2012,09,29,12,24,3.60
2012,09,29,12,25,3.60
2012,09,29,12,26,3.60
2012,09,29,12,27,3.70
2012,09,29,12,28,3.70
2012,09,29,12,29,3.70
2012,09,29,12,30,3.70
2012,09,29,12,31,3.70
2012,09,29,12,32,3.70
2012,09,29,12,33,3.70
2012,09,29,12,34,3.80
2012,09,29,12,35,3.80
2012,09,29,12,36,3.80
2012,09,29,12,37,3.80
2012,09,29,12,38,3.80
2012,09,29,12,39,3.80
2012,09,29,12,40,3.80
2012,09,29,12,41,3.80
2012,09,29,12,42,3.80
2012,09,29,12,43,3.80
2012,09,29,12,44,3.80
2012,09,29,12,45,3.90
2012,09,29,12,46,3.90
2012,09,29,12,47,3.90
2012,09,29,12,48,3.90
2012,09,29,12,49,3.90
2012,09,29,12,50,3.90
2012,09,29,12,51,3.90
2012,09,29,12,52,3.90
2012,09,29,12,53,4.00
2012,09,29,12,54,4.00
2012,09,29,12,55,4.00
2012,09,29,12,56,4.00
2012,09,29,12,57,4.00
2012,09,29,12,58,4.00
2012,09,29,12,59,4.10
2012,09,29,13,00,4.10
2012,09,29,13,01,4.10
2012,09,29,13,02,4.10
2012,09,29,13,03,4.10
2012,09,29,13,04,4.10
2012,09,29,13,05,4.10
2012,09,29,13,06,4.10
2012,09,29,13,07,4.10
2012,09,29,13,08,4.10
2012,09,29,13,09,4.10
2012,09,29,13,10,4.20
2012,09,29,13,11,4.20
2012,09,29,13,12,4.20
2012,09,29,13,13,4.20
2012,09,29,13,14,4.20
2012,09,29,13,15,4.20
2012,09,29,13,16,4.20
2012,09,29,13,17,4.20
2012,09,29,13,18,4.20
2012,09,29,13,19,4.20
2012,09,29,13,20,4.20
2012,09,29,13,21,4.20
2012,09,29,13,22,4.30
2012,09,29,13,23,4.30
2012,09,29,13,24,4.30
2012,09,29,13,25,4.30
2012,09,29,13,26,4.30
2012,09,29,13,27,4.30
2012,09,29,13,28,4.30
2012,09,29,13,29,4.30
2012,09,29,13,30,4.30
2012,09,29,13,31,4.30
2012,09,29,13,32,4.40
2012,09,29,13,33,4.40
2012,09,29,13,34,4.40
2012,09,29,13,35,4.40
2012,09,29,13,36,4.40
2012,09,29,13,37,4.40
2012,09,29,13,38,4.40
2012,09,29,13,39,4.50
2012,09,29,13,40,4.50
2012,09,29,13,41,4.50
2012,09,29,13,42,4.60
2012,09,29,13,43,4.60
2012,09,29,13,44,4.70
2012,09,29,13,45,4.70
2012,09,29,13,46,4.70
2012,09,29,13,47,4.80
2012,09,29,13,48,4.80
2012,09,29,13,49,4.80
2012,09,29,13,50,4.90
2012,09,29,13,51,4.90
2012,09,29,13,52,4.90
2012,09,29,13,53,5.00
2012,09,29,13,54,5.00
2012,09,29,13,55,5.10
2012,09,29,13,56,5.20
2012,09,29,13,57,5.30
2012,09,29,13,58,5.30
2012,09,29,13,59,5.40
2012,09,29,14,00,5.50
2012,09,29,14,01,5.60
2012,09,29,14,02,5.70
2012,09,29,14,03,5.70
2012,09,29,14,04,5.80
2012,09,29,14,05,5.90
2012,09,29,14,06,6.00
2012,09,29,14,07,6.00
2012,09,29,14,08,6.10
2012,09,29,14,09,6.20
2012,09,29,14,10,6.30
2012,09,29,14,11,6.30
2012,09,29,14,12,6.40
2012,09,29,14,13,6.40
2012,09,29,14,14,6.50
2012,09,29,14,15,6.50
2012,09,29,14,16,6.50
2012,09,29,14,17,6.50
2012,09,29,14,18,6.60
2012,09,29,14,19,6.60
2012,09,29,14,20,6.70
2012,09,29,14,21,6.70
2012,09,29,14,22,6.70
2012,09,29,14,23,6.80
2012,09,29,14,24,6.80
2012,09,29,14,25,6.80
2012,09,29,14,26,6.90
2012,09,29,14,27,6.90
2012,09,29,14,28,6.90
2012,09,29,14,29,6.90
2012,09,29,14,30,6.90
2012,09,29,14,31,7.00
2012,09,29,14,32,7.00
2012,09,29,14,33,7.10
2012,09,29,14,34,7.10
2012,09,29,14,35,7.20
2012,09,29,14,36,7.20
2012,09,29,14,37,7.30
2012,09,29,14,38,7.30
2012,09,29,14,39,7.40
2012,09,29,14,40,7.40
2012,09,29,14,41,7.50
2012,09,29,14,42,7.50
2012,09,29,14,43,7.50
2012,09,29,14,44,7.50
2012,09,29,14,45,7.50
2012,09,29,14,46,7.50
2012,09,29,14,47,7.40
2012,09,29,14,48,7.40
2012,09,29,14,49,7.40
2012,09,29,14,50,7.40
2012,09,29,14,51,7.40
2012,09,29,14,52,7.40
2012,09,29,14,53,7.40
2012,09,29,14,54,7.40
2012,09,29,14,55,7.40
2012,09,29,14,56,7.40
2012,09,29,14,57,7.40
2012,09,29,14,58,7.40
2012,09,29,14,59,7.40
2012,09,29,15,00,7.50
2012,09,29,15,01,7.50
2012,09,29,15,02,7.60
2012,09,29,15,03,7.60
2012,09,29,15,04,7.60
2012,09,29,15,05,7.70
2012,09,29,15,06,7.70
2012,09,29,15,07,7.70
2012,09,29,15,08,7.70
2012,09,29,15,09,7.80
2012,09,29,15,10,7.80
2012,09,29,15,11,7.80
2012,09,29,15,12,7.80
2012,09,29,15,13,7.80
2012,09,29,15,14,7.80
2012,09,29,15,15,7.80
2012,09,29,15,16,7.80
2012,09,29,15,17,7.80
2012,09,29,15,18,7.80
2012,09,29,15,19,7.80
2012,09,29,15,20,7.80
2012,09,29,15,21,7.80
2012,09,29,15,22,7.80
2012,09,29,15,23,7.80
2012,09,29,15,24,7.90
2012,09,29,15,25,7.90
2012,09,29,15,26,7.90
2012,09,29,15,27,8.00
2012,09,29,15,28,8.00
2012,09,29,15,29,8.00
2012,09,29,15,30,8.10
2012,09,29,15,31,8.10
2012,09,29,15,32,8.20
2012,09,29,15,33,8.20
2012,09,29,15,34,8.30
2012,09,29,15,35,8.30
2012,09,29,15,36,8.30
2012,09,29,15,37,8.40
2012,09,29,15,38,8.40
2012,09,29,15,39,8.40
2012,09,29,15,40,8.40
2012,09,29,15,41,8.40
2012,09,29,15,42,8.50
2012,09,29,15,43,8.50
2012,09,29,15,44,8.50
2012,09,29,15,45,8.60
2012,09,29,15,46,8.60
2012,09,29,15,47,8.60
2012,09,29,15,48,8.60
2012,09,29,15,49,8.70
2012,09,29,15,50,8.70
2012,09,29,15,51,8.70
2012,09,29,15,52,8.80
2012,09,29,15,53,8.80
2012,09,29,15,54,8.80
2012,09,29,15,55,8.80
2012,09,29,15,56,8.90
2012,09,29,15,57,8.90
2012,09,29,15,58,8.90
2012,09,29,15,59,8.90
2012,09,29,16,00,9.00
2012,09,29,16,01,9.00
2012,09,29,16,02,9.10
2012,09,29,16,03,9.10
2012,09,29,16,04,9.20
2012,09,29,16,05,9.20
2012,09,29,16,06,9.30
2012,09,29,16,07,9.40
2012,09,29,16,08,9.40
2012,09,29,16,09,9.50
2012,09,29,16,10,9.60
2012,09,29,16,11,9.60
2012,09,29,16,12,9.70
2012,09,29,16,13,9.70
2012,09,29,16,14,9.80
2012,09,29,16,15,9.80
2012,09,29,16,16,9.80
2012,09,29,16,17,9.80
2012,09,29,16,18,9.80
2012,09,29,16,19,9.70
2012,09,29,16,20,9.70
2012,09,29,16,21,9.70
2012,09,29,16,22,9.70
2012,09,29,16,23,9.70
2012,09,29,16,24,9.70
2012,09,29,16,25,9.60
2012,09,29,16,26,9.60
2012,09,29,16,27,9.60
2012,09,29,16,28,9.70
2012,09,29,16,29,9.70
2012,09,29,16,30,9.70
2012,09,29,16,31,9.70
2012,09,29,16,32,9.70
2012,09,29,16,33,9.80
2012,09,29,16,34,9.80
2012,09,29,16,35,9.70
2012,09,29,16,36,9.80
2012,09,29,16,37,9.80
2012,09,29,16,38,9.80
2012,09,29,16,39,9.80
2012,09,29,16,40,9.80
2012,09,29,16,41,9.80
2012,09,29,16,42,9.90
2012,09,29,16,43,9.90
2012,09,29,16,44,9.90
2012,09,29,16,45,9.90
2012,09,29,16,46,9.90
2012,09,29,16,47,10.00
2012,09,29,16,48,10.00
2012,09,29,16,49,10.10
2012,09,29,16,50,10.10
2012,09,29,16,51,10.10
2012,09,29,16,52,10.20
2012,09,29,16,53,10.20
2012,09,29,16,54,10.20
2012,09,29,16,55,10.30
2012,09,29,16,56,10.30
2012,09,29,16,57,10.30
2012,09,29,16,58,10.30
2012,09,29,16,59,10.40
2012,09,29,17,00,10.40
2012,09,29,17,01,10.40
2012,09,29,17,02,10.50
2012,09,29,17,03,10.50
2012,09,29,17,04,10.60
2012,09,29,17,05,10.60
2012,09,29,17,06,10.60
2012,09,29,17,07,10.60
2012,09,29,17,08,10.60
2012,09,29,17,09,10.50
2012,09,29,17,10,10.50
2012,09,29,17,11,10.40
2012,09,29,17,12,10.40
2012,09,29,17,13,10.40
2012,09,29,17,14,10.30
2012,09,29,17,15,10.30
2012,09,29,17,16,10.20
2012,09,29,17,17,10.20
2012,09,29,17,18,10.10
2012,09,29,17,19,10.10
2012,09,29,17,20,10.10
2012,09,29,17,21,10.00
2012,09,29,17,22,10.00
2012,09,29,17,23,9.90
2012,09,29,17,24,9.90
2012,09,29,17,25,9.90
2012,09,29,17,26,9.90
2012,09,29,17,27,9.90
2012,09,29,17,28,9.90
2012,09,29,17,29,9.90
2012,09,29,17,30,9.90
2012,09,29,17,31,9.80
2012,09,29,17,32,9.80
2012,09,29,17,33,9.80
2012,09,29,17,34,9.80
2012,09,29,17,35,9.80
2012,09,29,17,36,9.80
2012,09,29,17,37,9.80
2012,09,29,17,38,9.80
2012,09,29,17,39,9.80
2012,09,29,17,40,9.80
2012,09,29,17,41,9.80
2012,09,29,17,42,9.70
2012,09,29,17,43,9.70
2012,09,29,17,44,9.70
2012,09,29,17,45,9.70
2012,09,29,17,46,9.70
2012,09,29,17,47,9.60
2012,09,29,17,48,9.60
2012,09,29,17,49,9.60
2012,09,29,17,50,9.60
2012,09,29,17,51,9.60
2012,09,29,17,52,9.60
2012,09,29,17,53,9.60
2012,09,29,17,54,9.60
2012,09,29,17,55,9.60
2012,09,29,17,56,9.60
2012,09,29,17,57,9.60
2012,09,29,17,58,9.50
2012,09,29,17,59,9.50
2012,09,29,18,00,9.50
2012,09,29,18,01,9.50
2012,09,29,18,02,9.50
2012,09,29,18,03,9.50
2012,09,29,18,04,9.40